Weather in Obzherikha

Russia / Ivanovo Oblast     57°10′47″N   42°57′43″E
temp.,
°C
wind,
m/s
gust,
m/s
humid.,
%
clouds,
%
prec.,
mm/h
press.,
hPa
HPBL,
m
27 july, tue
tue2700:00+17wnw486934 0.0 101999
03:00+15wnw48752 0.0 1019157
06:00+15nnw46795 0.0 1020200
09:00+19n24685 0.0 1019325
12:00+22n255694 0.0 1019860
15:00+21n255692 0.0 1018251
18:00+21wnw346189 0.0 1017213
21:00+18nw227758 0.1 101712
28 july, wed
wed2800:00+17n227912 0.0 101825
03:00+15wnw11815 0.2 101818
06:00+16ne00790 0.0 101762
09:00+18ese11695 0.0 1017252
12:00+19e12655 0.0 1016776
15:00+20ese225995 0.0 1014797
18:00+20se3359100 0.0 101263
21:00+21ssw5758100 0.0 101186
29 july, thu
thu2900:00+19sw3479100 0.1 101061
03:00+18ssw4584100 0.1 100895
06:00+17ssw5689100 0.0 1007289
09:00+18s438995 0.3 1005321
12:00+18s338662 0.3 1005353
15:00+20se117768 0.3 1004471
18:00+21sw127484 0.3 1004385
21:00+19sw33825 0.8 100425
30 july, fri
fri3000:00+17sw479195 0.2 1004118
03:00+17wsw489315 0.2 1004137
06:00+17w59855 0.0 1005182
09:00+22wnw46645 0.0 1006298
12:00+25wnw464438 0.0 1005998
15:00+25nw4646100 0.0 1005704
18:00+24sw235013 0.0 1005316
21:00+20sw336961 0.0 100518
31 july, sat
sat3100:00+19sw4575100 0.0 100569
03:00+18wsw348596 0.1 100546
06:00+18sw3484100 0.1 100574
09:00+21sw457049 0.3 1004300
12:00+25wsw5747100 0.7 1004977
15:00+24wsw58508 0.9 1003512
18:00+23wsw49560 0.4 1004886
21:00+20ssw5663100 0.4 100361